Regional Weather Roundup
Issued by NWS

Home | Current Version | Previous Version | Graphics & Text | Print | Product List | Glossary On
Versions: 1 2 3 4 5 6 7 8 9 10 11 12 13 14 15 16 17 18 19 20 21 22 23 24 25 26 27 28 29 30 31 32 33 34 35 36 37 38 39 40 41 42 43 44 45 46 47 48 49 50
000
ASUS43 KMPX 270910
RWRMN
WEATHER ROUNDUP FOR MINNESOTA
NATIONAL WEATHER SERVICE TWIN CITIES/CHANHASSEN MN
300 AM CST MON FEB 27 2017


NOTE: "FAIR" INDICATES FEW OR NO CLOUDS BELOW 12,000 FEET WITH NO
SIGNIFICANT WEATHER AND/OR OBSTRUCTIONS TO VISIBILITY. N/A MEANS
CURRENT SKY AND/OR WEATHER CONDITIONS ARE NOT AVAILABLE.

MNZ060>063-068>070-271000-
   Twin Cities Metro

CITY           SKY/WX    TMP DP  RH WIND       PRES   REMARKS
TWIN CITIES    CLOUDY    26  21  81 SE6       29.95F WCI  19
ST PAUL        CLOUDY    27  24  89 S8        29.97S WCI  19
CRYSTAL        CLOUDY    28  19  69 SE5       29.93F WCI  23
BLAINE         CLOUDY    28  18  64 CALM      29.94S
LAKEVILLE      CLEAR     21  21 100 S5        29.95F WCI  15
EDEN PRAIRIE   CLOUDY    27  22  81 S7        29.93F WCI  19
SOUTH ST PAUL  MOCLDY    27  23  86 S3        29.96S
LAKE ELMO      MOCLDY    28  25  86 S6        29.96F WCI  22
$$
MNZ001>005-007-008-013>017-022>024-027-028-271000-
   Northwest Minnesota

CITY           SKY/WX    TMP DP  RH WIND       PRES   REMARKS
BEMIDJI        CLEAR      2  -1  87 CALM      29.90S
HALLOCK        CLOUDY    12   9  85 S12       29.88S WCI  -2
ROSEAU         PTCLDY     7   1  78 SW6       29.87S WCI  -3
WARROAD        CLEAR      7   3  85 SW6       29.87S WCI  -3
THIEF RVR FALL CLOUDY     7   5  91 S5        29.90F WCI  -2
CROOKSTON      CLOUDY    10   7  85 S5        29.93S WCI   2
FOSSTON        CLOUDY     7   3  85 S6        29.90S WCI  -3
DETROIT LAKES  CLOUDY    19  14  79 SE3       29.90S
MOORHEAD       CLOUDY    19  12  73 SE3       29.93S
PARK RAPIDS    CLOUDY    17   8  67 SE3       29.89S
MAHNOMEN       FAIR      13   9  84 SE3       29.91S
$$
MNZ006-009>011-018-025>026-271000-
   North Central Minnesota

CITY           SKY/WX    TMP DP  RH WIND       PRES   REMARKS
BAUDETTE       CLEAR      7   2  80 S7        29.86S WCI  -5
FLAG ISLAND    PTCLDY     9   5  85 SW9       29.84S WCI  -5
INTL FALLS     CLEAR      2  -3  80 S5        29.89S WCI  -8
WASKISH        CLEAR      5   1  85 S3        29.90S
BIG FORK       CLEAR     -6  -9  84 CALM      29.91S
LONGVILLE      CLOUDY    12   9  85 CALM      29.91F
GRAND RAPIDS   CLOUDY    10   4  76 CALM      29.94S
CRANE LAKE     CLEAR     -6  -9  84 CALM      29.95S
ORR            CLEAR      3  -4  72 CALM      29.89S
COOK           CLEAR     -6  -8  92 CALM      29.92S
WALKER         CLOUDY    11   6  83 CALM      29.91S
$$
MNZ012-019>021-037-271000-
   Northeast Minnesota

CITY           SKY/WX    TMP DP  RH WIND       PRES   REMARKS
DULUTH         CLOUDY    15   3  59 SW7       29.92F WCI   5
ELY            CLEAR     -6  -9  84 CALM      29.92S
HIBBING        CLOUDY    -1  -5  82 NW3       29.92S
EVELETH        MOCLDY    -4 -10  77 CALM      29.93S
DULUTH HARBOR  CLOUDY    16   7  67 CALM      29.99F
TWO HARBORS    CLOUDY     9   1  72 CALM      29.93S
SILVER BAY     MOCLDY    -2  -6  84 CALM      29.93F
GRAND MARAIS     N/A     16   1  51 NW8G17    29.98R WCI   5
G MARAIS ARPRT CLEAR      3  -6  66 W6        29.89S WCI  -8
$$
MNZ029>031-032-039>041-046>048-054>057-064-271000-
   West Central Minnesota

CITY           SKY/WX    TMP DP  RH WIND       PRES   REMARKS
FERGUS FALLS   CLOUDY    19  12  73 W5        29.94F WCI  13
WHEATON        CLOUDY    21  18  86 E6        29.91F WCI  14
MORRIS         CLOUDY    21  18  86 E7        29.87F WCI  13
ALEXANDRIA     CLOUDY    21  18  88 E7        29.89S WCI  12
ELBOW LAKE     CLOUDY    17  14  88 SE6       29.89F WCI   8
WADENA         CLOUDY    16  10  79 CALM      29.90S
GLENWOOD       CLOUDY    19  19 100 NE7       29.89R WCI  10
APPLETON       CLOUDY    27  21  80 E3        29.88S
BENSON         CLOUDY    28  18  64 E3        29.90S
ORTONVILLE       N/A     25  19  80 CALM      29.87F
MADISON        CLOUDY    28  28 100 CALM      29.88R
WILLMAR        MOCLDY    27  25  93 SE5       29.90S WCI  21
$$
MNZ033>034-036-042>043-049>051-058-059-271000-
   Central Minnesota

CITY           SKY/WX    TMP DP  RH WIND       PRES   REMARKS
ST CLOUD       CLOUDY    25  17  72 NE5       29.91F WCI  19
SAUK CENTRE    CLOUDY    20  18  92 NE3       29.90S
PAYNESVILLE    CLOUDY    25  18  76 CALM      29.90S
AITKIN         CLOUDY    19  10  68 CALM      29.91F
PINE RIVER     CLOUDY    16  10  79 CALM      29.95S
BRAINERD       CLOUDY    18  11  74 CALM      29.92F
STAPLES        CLOUDY    16  10  79 CALM      29.91S
LONG PRAIRIE   MOCLDY    19  18  93 N3        29.90S
LITTLE FALLS   CLOUDY    21  18  86 CALM      29.92F
LITCHFIELD     PTCLDY    27  23  86 SE5       29.90F WCI  21
BUFFALO        CLOUDY    27  20  73 E5        29.93F WCI  22
MAPLE LAKE     CLOUDY    27  21  77 SE3       29.92F
HUTCHINSON     PTCLDY    28  26  91 S3        29.92S
$$
MNZ037-044-045-052-053-271000-
   East Central Minnesota

CITY           SKY/WX    TMP DP  RH WIND       PRES   REMARKS
PRINCETON      CLOUDY    27  19  74 E3        29.92F
MORA           LGT SNOW  21  18  86 CALM      29.96F
CAMBRIDGE      CLOUDY    27  18  69 CALM      29.92F
RUSH CITY      LGT SNOW  23  18  80 CALM      29.96S
MOOSE LAKE     CLOUDY    16   9  73 CALM      29.93F
HINCKLEY       CLOUDY    23  18  80 CALM      29.95F
CLOQUET        CLOUDY    12   3  67 CALM      29.93F
MCGREGOR       CLOUDY    18  12  79 CALM      29.93F
$$
MNZ071>073-080-081-089-090-097-098-271000-
   Southwest Minnesota

CITY           SKY/WX    TMP DP  RH WIND       PRES   REMARKS
MONTEVIDEO     CLOUDY    28  25  86 SW3       29.90S
GRANITE FALLS  CLOUDY    27  24  89 S6        29.90S WCI  20
CANBY          CLEAR     30  24  77 SW13      29.87F WCI  20
MARSHALL       CLEAR     30  22  72 SW14      29.88S WCI  19
REDWOOD FALLS  CLEAR     28  21  75 SW9       29.90S WCI  19
OLIVIA         CLOUDY    28  25  86 S5        29.89S WCI  23
PIPESTONE      CLEAR     27  19  74 SW10      29.88F WCI  17
WINDOM         CLEAR     28  23  80 S8        29.92S WCI  20
WORTHINGTON    CLEAR     27  22  81 SW15      29.92S WCI  15
JACKSON        PTCLDY    23  19  86 S7        29.94S WCI  15
TRACY          CLEAR     30  25  80 SW15      29.89F WCI  19
SLAYTON        CLEAR     26  23  87 SW10      29.90F WCI  16
$$
MNZ065>067-074>077-082>085-091>093-271000-
   South Central Minnesota

CITY           SKY/WX    TMP DP  RH WIND       PRES   REMARKS
MANKATO          N/A     22  19  89 S6        29.95F WCI  14
NEW ULM        CLEAR     27  21  80 S7        29.92S WCI  19
ST JAMES       CLEAR     27  21  80 S8        29.94F WCI  18
FAIRMONT       CLEAR     20  16  84 SW8       29.95F WCI  10
GLENCOE        CLOUDY    29  28  94 S6        29.92S WCI  23
FARIBAULT      CLEAR     19  18  93 S8        29.96S WCI   9
OWATONNA       CLEAR     21  16  79 S10       29.95F WCI  10
WASECA         CLEAR     19  16  86 S9        29.97S WCI   9
ALBERT LEA     CLEAR     19  19 100 CALM      29.96F
$$
MNZ078>079-086>088-094>096-271000-
   Southeast Minnesota

CITY           SKY/WX    TMP DP  RH WIND       PRES   REMARKS
ROCHESTER      PTCLDY    16  14  92 S7        29.97F WCI   6
RED WING       PTCLDY    25  18  74 S3        29.98S
STANTON        CLEAR     23  18  83 S7        29.95F WCI  14
WINONA         CLEAR     19  19 100 CALM      30.03S
AUSTIN         CLEAR     16  12  86 S5        29.98S WCI   9
PRESTON        CLEAR     17  15  90 S8        29.99S WCI   7
$$
ABBREVIATIONS USED IN REMARKS
   TC - TEMPERATURES IN CELSIUS
  WCI - WIND CHILL INDEX
   HX - HEAT INDEX
  VSB - VISIBILITY
$$




USA.gov is the U.S. government's official web portal to all federal, state and local government web resources and services.